Webcam Zuidwest  Webcam Zuidwest


Onweer radar more information blitzortung!


Regen radar more information rain snow radar


Weerstation Alkmaar Centrum

Weerstation Luyksgestel

Website Noardburgum


U vindt ons ook hier:

Het Weer Aktueel

UK Metoffice

European Weather Network

Weather Underground

AWEKAS

Citizen Weather Observer Program (CWOP)

HAMweather, WeatherForYou, PWS Weather



Het weer levert geen direct gevaar op.    Er zijn geen waarschuwingen afgegeven.
IFRIESLA82 History tables / reports. Script startWUhistory.php

Select another period ( hide this area )

Eenheden Periode Custom range Directly to
Metrisch Engels Beide
Dagelijkse Wekelijkse Maandelijkse Jaarlijkse
use both date-selectors for a custom range
previous Dag
With this date

WeatherUnderground graphs for this period ( click here ) Loading the graph can take up to a minute!


Dagelijkse Samenvatting Zaterdag mei 8 2021
Tijd Temp. ( °C ) Dew pt. ( °C ) Wind ( km/h ) van Windvlaag ( km/h ) Luchtdruk ( hPa ) Humid.( % ) Rainrate ( cm ) Zonneschijn ( W/m2 )
Hoog13,1 8,2 39,0 ZO ( 1620/2796 ) 39,0 1016,9 94 2,29 473
Gemiddeld7,6 5,0 13,6 ZO #105/205 17,4 1013,4 85 2,50 201 #145/205
Laag3,0 2,1 -   0,0 1006,8 65 -  
Dagelijkse Tabular details for Zaterdag mei 8 2021
Tijd Temp. ( °C ) Dew pt. ( °C ) Wind ( km/h ) van Windvlaag ( km/h ) Luchtdruk ( hPa ) Humid.( % ) Rainrate ( cm ) Zonneschijn ( W/m2 )
00:09 4,8 3,3 5,0 ZW 6,0 1016,6 90 - -
00:14 4,8 3,3 6,0 ZW 6,0 1016,9 90 - -
00:19 4,7 3,2 5,0 ZW 5,0 1016,9 90 - -
00:24 4,6 3,3 6,0 ZW 6,0 1016,9 91 - -
00:29 4,6 3,3 6,0 ZW 6,0 1016,9 91 - -
00:34 4,6 3,3 5,0 ZW 6,0 1016,6 91 - -
00:39 4,6 3,3 6,0 ZZW 6,0 1016,9 91 - -
00:44 4,6 3,3 8,0 ZZW 8,0 1016,9 91 - -
00:54 4,6 3,3 6,0 ZZW 6,0 1016,9 91 - -
00:59 4,5 3,2 8,0 ZZW 8,0 1016,9 91 - -
01:04 4,4 3,1 10,0 ZZW 10,0 1016,9 91 - -
01:09 4,4 3,1 8,0 ZZW 10,0 1016,9 91 - -
01:14 4,3 3,0 8,0 ZW 11,0 1016,6 91 - -
01:19 4,3 3,0 10,0 ZZW 10,0 1016,9 91 - -
01:24 4,3 3,0 10,0 ZW 11,0 1016,6 91 - -
01:29 4,3 2,9 5,0 ZW 6,0 1016,6 91 - -
01:34 4,1 2,8 5,0 ZZW 6,0 1016,6 91 - -
01:39 4,2 2,9 6,0 ZW 8,0 1016,6 91 - -
01:44 4,2 2,9 8,0 ZW 8,0 1016,6 91 - -
01:49 4,2 2,9 6,0 ZZW 6,0 1016,6 91 - -
01:54 4,1 2,9 5,0 ZZW 8,0 1016,6 92 - -
02:09 4,0 2,8 5,0 ZW 5,0 1016,6 92 - -
02:14 3,9 2,7 5,0 ZW 5,0 1016,6 92 - -
02:19 3,9 2,7 3,0 ZW 5,0 1016,6 92 - -
02:24 3,8 2,6 5,0 ZW 5,0 1016,6 92 - -
02:29 3,7 2,7 3,0 ZW 5,0 1016,3 93 - -
02:34 3,6 2,5 3,0 ZW 5,0 1016,3 93 - -
02:39 3,4 2,4 5,0 ZW 5,0 1016,3 93 - -
02:44 3,5 2,5 5,0 ZZW 5,0 1016,3 93 - -
02:49 3,7 2,7 5,0 ZZW 5,0 1016,3 93 - -
02:54 3,6 2,6 3,0 ZZW 3,0 1016,3 93 - -
02:59 3,4 2,4   Windstil 2,0 1016,3 93 - -
03:04 3,3 2,3   Windstil 3,0 1016,3 93 - -
03:09 3,2 2,2   Windstil   1015,9 93 - -
03:14 3,2 2,2   Windstil   1015,9 93 - -
03:19 3,2 2,2   Windstil   1015,9 93 - -
03:24 3,3 2,3   Windstil   1015,9 93 - -
03:29 3,3 2,3 3,0 ZZW 3,0 1015,9 93 - -
03:39 3,2 2,2 3,0 ZZW 3,0 1015,9 93 - -
03:44 3,1 2,1 3,0 ZZW 3,0 1015,9 93 - -
03:49 3,1 2,1 1,0 ZZW 3,0 1015,9 93 - -
03:54 3,1 2,2   Windstil   1015,9 94 - -
03:59 3,1 2,2   Windstil   1015,6 94 - -
04:04 3,2 2,3   Windstil   1015,6 94 - -
04:09 3,1 2,2 3,0 ZZO 3,0 1015,6 94 - -
04:14 3,0 2,1 3,0 ZZO 6,0 1015,6 94 - -
04:19 3,0 2,1 5,0 ZO 6,0 1015,6 94 - -
04:24 3,2 2,3 5,0 ZO 6,0 1015,6 94 - -
04:29 3,3 2,4 5,0 ZO 6,0 1015,6 94 - -
04:34 3,6 2,7 5,0 ZO 6,0 1015,6 94 - -
04:49 3,6 2,7 5,0 ZO 6,0 1015,6 94 - -
04:54 3,5 2,6 5,0 ZO 6,0 1015,6 94 - -
05:04 3,6 2,7 6,0 ZO 6,0 1015,2 94 - -
05:09 3,5 2,6 5,0 ZO 6,0 1015,2 94 - -
05:14 3,6 2,7 8,0 ZO 8,0 1015,2 94 - -
05:19 3,5 2,6 5,0 ZO 6,0 1015,2 94 - -
05:24 3,4 2,5 5,0 Oosten 10,0 1015,2 94 - -
05:29 3,4 2,5 8,0 ZO 8,0 1015,2 94 - -
05:34 3,3 2,4 6,0 ZO 10,0 1015,2 94 - -
05:39 3,4 2,5 6,0 ZO 10,0 1015,2 94 - -
05:44 3,4 2,5 6,0 ZO 8,0 1014,9 94 - 5
05:49 3,6 2,7 5,0 ZO 10,0 1014,9 94 - 9
05:54 3,6 2,7 5,0 ZO 8,0 1015,2 94 - 11
05:59 3,6 2,7 6,0 ZO 10,0 1014,9 94 - 12
06:04 3,8 2,9 8,0 ZO 10,0 1014,9 94 - 14
06:09 3,9 3,0 6,0 ZO 6,0 1015,2 94 - 16
06:14 4,1 3,2 6,0 ZO 10,0 1014,9 94 0,25 18
06:19 4,2 3,2 5,0 ZO 6,0 1015,2 94 0,25 18
06:24 4,2 3,2 6,0 ZZO 8,0 1014,9 93 0,25 21
06:29 4,2 3,2 8,0 ZZO 13,0 1015,2 93 0,25 26
06:34 4,2 3,2 11,0 ZO 13,0 1014,9 93 0,25 28
06:39 4,3 3,3 6,0 ZO 11,0 1014,9 93 0,25 40
06:44 4,3 3,3 6,0 ZO 11,0 1014,9 93 0,25 42
06:49 4,4 3,4 8,0 ZZO 8,0 1014,9 93 0,25 37
06:54 4,4 3,4 8,0 ZO 10,0 1014,9 93 0,25 44
06:59 4,4 3,4 10,0 ZO 11,0 1014,9 93 0,25 60
07:04 4,5 3,5 10,0 ZO 15,0 1015,2 93 0,25 46
07:09 4,5 3,3 10,0 ZZO 16,0 1015,2 92 0,25 42
07:14 4,5 3,3 16,0 ZO 16,0 1015,2 92 - 44
07:19 4,5 3,3 14,0 ZO 16,0 1015,2 92 - 46
07:24 4,5 3,3 11,0 ZZO 16,0 1015,2 92 - 125
07:29 4,6 3,4 13,0 ZO 16,0 1015,2 92 - 176
07:34 4,8 3,5 10,0 ZO 13,0 1014,9 91 - 190
07:39 5,0 3,7 16,0 ZO 19,0 1014,9 91 - 197
07:44 5,2 3,7 11,0 ZO 19,0 1014,9 90 - 200
07:49 5,4 3,9 14,0 ZO 19,0 1014,9 90 - 171
07:54 5,6 3,9 16,0 ZO 19,0 1014,9 89 - 207
07:59 5,8 4,1 14,0 ZO 16,0 1014,9 89 - 209
08:04 5,9 4,1 14,0 ZO 18,0 1014,9 89 - 200
08:09 6,2 4,4 13,0 ZO 19,0 1014,9 88 - 163
08:14 6,4 4,4 14,0 ZO 16,0 1014,9 88 - 144
08:19 6,6 4,5 16,0 ZO 19,0 1014,9 87 - 134
08:24 6,8 4,6 16,0 ZO 19,0 1014,9 86 - 156
08:29 6,8 4,6 16,0 ZO 24,0 1014,9 86 - 172
08:34 7,1 4,7 13,0 ZO 24,0 1014,9 85 - 176
08:39 7,2 4,8 11,0 ZZO 16,0 1014,9 85 - 179
08:44 7,3 4,8 14,0 ZO 18,0 1014,9 84 - 267
08:49 7,6 5,1 13,0 OZO 15,0 1014,9 85 - 290
08:54 7,8 5,3 14,0 OZO 18,0 1014,6 84 - 318
08:59 8,1 5,2 14,0 ZO 18,0 1014,6 83 - 315
09:04 8,2 5,5 13,0 ZZO 18,0 1014,6 83 - 295
09:09 8,3 5,4 11,0 ZZO 16,0 1014,6 82 - 279
09:14 8,4 5,5 16,0 ZO 19,0 1014,6 82 - 264
09:19 8,6 5,5 14,0 ZZO 19,0 1014,6 81 - 309
09:24 8,9 5,6 16,0 ZO 16,0 1014,6 81 - 334
09:29 9,1 5,7 20,0 ZO 19,0 1014,2 80 - 323
09:34 9,3 5,8 18,0 ZZO 21,0 1014,2 79 - 323
09:39 9,4 5,8 16,0 ZO 19,0 1014,2 78 - 323
09:44 9,5 5,5 21,0 ZO 26,0 1014,2 76 - 304
09:49 9,5 5,1 23,0 ZZO 23,0 1014,2 74 - 302
09:54 9,7 5,3 16,0 ZO 26,0 1014,2 74 - 316
09:59 9,9 5,7 14,0 ZZO 19,0 1014,2 75 - 332
10:04 10,0 5,8 14,0 ZO 19,0 1014,2 75 - 316
10:09 10,1 5,9 14,0 OZO 16,0 1013,9 75 - 278
10:14 10,2 5,8 13,0 ZO 16,0 1013,9 74 - 274
10:19 10,1 5,7 11,0 ZZO 16,0 1013,9 74 - 301
10:24 10,2 5,6 13,0 ZZO 19,0 1013,9 73 - 297
10:29 10,2 5,4 16,0 ZO 23,0 1013,6 72 - 285
10:34 10,3 5,5 16,0 ZO 21,0 1013,6 72 - 299
10:39 10,4 5,4 14,0 ZZO 21,0 1013,6 71 - 348
10:44 10,7 5,7 18,0 ZO 21,0 1013,6 71 - 364
10:49 10,7 5,7 18,0 ZO 21,0 1013,6 71 - 362
10:54 10,9 5,5 13,0 ZO 18,0 1013,6 70 - 387
10:59 11,1 5,8 20,0 ZO 21,0 1013,2 70 - 394
11:04 11,1 5,8 21,0 ZO 24,0 1013,2 70 - 390
11:09 11,2 5,3 18,0 ZO 24,0 1013,2 67 - 380
11:14 11,3 5,5 21,0 OZO 27,0 1013,2 68 - 366
11:19 11,3 5,2 23,0 ZO 26,0 1012,9 66 - 359
11:24 11,4 5,1 26,0 ZO 26,0 1012,9 65 - 353
11:29 11,5 5,4 23,0 ZO 26,0 1012,9 66 - 322
11:34 11,6 5,5 24,0 ZO 24,0 1012,9 66 - 323
11:39 11,8 5,9 13,0 ZO 19,0 1012,9 67 - 292
11:44 11,8 5,9 21,0 OZO 21,0 1012,5 67 - 308
11:49 11,7 5,3 24,0 ZO 26,0 1012,5 65 - 315
11:54 11,8 5,7 21,0 ZO 26,0 1012,2 66 - 295
11:59 11,8 5,7 23,0 ZO 23,0 1012,2 66 - 244
12:04 11,8 5,7 14,0 ZO 23,0 1012,2 66 - 348
12:09 12,2 6,3 21,0 ZZO 21,0 1012,2 67 - 367
12:14 12,4 6,1 14,0 ZO 24,0 1012,2 66 - 366
12:19 12,3 5,9 21,0 ZO 29,0 1012,2 65 - 357
12:24 12,4 6,0 24,0 ZO 24,0 1011,9 65 - 394
12:29 12,4 6,2 27,0 ZZO 32,0 1011,9 66 - 394
12:34 12,6 6,4 18,0 ZZO 26,0 1011,9 66 - 390
12:39 12,7 6,4 31,0 ZO 32,0 1011,9 66 - 396
12:44 12,7 6,5 18,0 ZZO 31,0 1011,9 66 - 364
12:49 12,7 6,5 27,0 ZZO 31,0 1011,9 66 - 338
12:54 12,7 6,7 18,0 ZZO 24,0 1011,9 67 - 323
12:59 12,8 6,8 18,0 ZZO 31,0 1011,5 67 - 366
13:04 12,8 6,8 20,0 ZZO 24,0 1011,5 67 - 411
13:09 13,1 6,9 32,0 ZZO 32,0 1011,5 67 - 473
13:14 13,1 6,9 21,0 ZZO 27,0 1011,5 66 - 401
13:19 13,0 6,8 23,0 ZZO 27,0 1011,5 66 - 320
13:24 12,9 7,1 23,0 Zuiden 27,0 1011,2 68 - 255
13:29 12,8 7,1 18,0 ZZO 31,0 1011,2 69 - 230
13:34 12,6 7,1 23,0 Zuiden 31,0 1011,2 69 - 251
13:39 12,6 7,1 20,0 ZZO 31,0 1011,2 69 - 264
13:44 12,6 6,6 18,0 ZZO 31,0 1010,8 67 - 288
13:49 12,7 6,7 20,0 ZZO 27,0 1010,8 67 - 288
13:54 12,7 6,7 27,0 ZZO 27,0 1010,8 67 - 253
13:59 12,6 6,6 27,0 Zuiden 39,0 1010,8 68 - 253
14:04 12,3 7,0 23,0 Zuiden 27,0 1010,8 71 - 234
14:09 12,0 7,5 18,0 Zuiden 29,0 1010,8 75 - 244
14:14 11,8 7,7 24,0 ZZO 34,0 1010,8 76 - 271
14:19 11,7 7,3 21,0 Zuiden 34,0 1010,8 76 - 209
14:24 11,4 7,6 26,0 ZO 27,0 1010,8 78 - 274
14:29 11,3 8,2 18,0 ZZO 27,0 1010,8 81 - 281
14:34 11,3 8,2 21,0 ZZO 31,0 1010,8 81 - 220
14:39 11,0 7,9 20,0 ZZO 31,0 1010,5 83 - 179
14:44 10,7 8,0 20,0 ZZO 24,0 1010,5 84 0,25 197
14:49 10,5 7,9 18,0 ZZO 24,0 1010,5 84 0,25 197
14:54 10,5 7,9 16,0 ZZO 21,0 1010,2 84 0,25 162
14:59 10,5 8,1 20,0 ZO 21,0 1010,2 85 0,25 111
15:04 10,4 7,9 21,0 ZO 23,0 1010,2 85 0,51 95
15:09 10,2 8,0 13,0 ZO 23,0 1010,2 86 0,51 90
15:14 10,1 7,9 14,0 ZO 19,0 1010,2 86 0,51 95
15:19 9,9 7,8 20,0 ZZO 21,0 1009,8 87 0,51 98
15:24 9,9 7,8 20,0 ZO 21,0 1009,8 87 0,51 98
15:29 9,8 7,9 14,0 ZO 21,0 1009,8 88 0,76 107
15:34 9,8 7,9 16,0 ZO 19,0 1009,5 88 1,02 104
15:39 9,7 7,8 21,0 OZO 26,0 1009,1 88 1,27 98
15:44 9,5 7,8 24,0 OZO 29,0 1009,1 89 1,27 88
15:49 9,4 7,8 20,0 OZO 29,0 1008,8 90 1,27 79
15:54 9,4 7,8 20,0 ZO 27,0 1008,8 90 1,52 77
15:59 9,3 7,7 14,0 ZO 27,0 1008,5 90 1,52 72
16:04 9,3 7,9 29,0 ZO 29,0 1008,5 91 1,78 63
16:09 9,3 7,9 16,0 ZO 18,0 1008,5 91 1,78 67
16:14 9,3 7,9 18,0 ZO 29,0 1008,5 91 2,03 67
16:19 9,2 7,8 16,0 ZO 19,0 1008,5 91 2,03 60
16:24 9,2 7,8 16,0 ZO 26,0 1008,5 91 2,03 65
16:29 9,2 7,8 39,0 ZO 39,0 1008,5 91 2,29 69
16:34 9,1 7,9 21,0 ZO 21,0 1008,1 92 2,29 81
16:39 9,2 8,0 21,0 ZO 24,0 1008,1 92 2,29 88
16:44 9,1 7,9 20,0 ZO 24,0 1007,8 92 2,29 63
16:49 9,2 8,0 29,0 ZO 35,0 1007,8 92 2,03 70
16:54 9,2 8,0 24,0 ZO 29,0 1007,8 92 2,03 72
16:59 9,1 8,0 24,0 ZO 24,0 1007,8 93 2,03 62
17:04 9,1 8,0 23,0 ZO 26,0 1007,5 93 2,03 53
17:09 9,1 8,0 23,0 ZO 26,0 1007,5 93 2,29 49
17:14 9,0 7,9 23,0 ZO 35,0 1007,5 93 2,29 42
17:19 9,0 7,9 14,0 ZO 35,0 1007,5 93 2,29 37
17:24 9,0 7,9 26,0 ZO 35,0 1007,1 93 2,29 44
17:29 9,0 7,9 21,0 ZO 35,0 1007,1 93 2,29 42
17:34 9,0 7,9 23,0 ZO 32,0 1007,1 93 2,29 47
17:39 9,0 7,9 23,0 ZO 31,0 1006,8 93 2,29 53
17:44 9,1 8,0 14,0 ZO 26,0 1006,8 93 2,29 53
Dagelijkse Samenvatting Zaterdag mei 8 2021
Tijd Temp. ( °C ) Dew pt. ( °C ) Wind ( km/h ) van Windvlaag ( km/h ) Luchtdruk ( hPa ) Humid.( % ) Rainrate ( cm ) Zonneschijn ( W/m2 )
Hoog13,1 8,2 39,0 ZO ( 1620/2796 ) 39,0 1016,9 94 2,29 473
Gemiddeld7,6 5,0 13,6 ZO #105/205 17,4 1013,4 85 2,50 201 #145/205
Laag3,0 2,1 -   0,0 1006,8 65 -  
Dagelijkse Tabular details for Zaterdag mei 8 2021
Tijd Temp. ( °C ) Dew pt. ( °C ) Wind ( km/h ) van Windvlaag ( km/h ) Luchtdruk ( hPa ) Humid.( % ) Rainrate ( cm ) Zonneschijn ( W/m2 )
00:09 4,8 3,3 5,0 ZW 6,0 1016,6 90 - -
00:14 4,8 3,3 6,0 ZW 6,0 1016,9 90 - -
00:19 4,7 3,2 5,0 ZW 5,0 1016,9 90 - -
00:24 4,6 3,3 6,0 ZW 6,0 1016,9 91 - -
00:29 4,6 3,3 6,0 ZW 6,0 1016,9 91 - -
00:34 4,6 3,3 5,0 ZW 6,0 1016,6 91 - -
00:39 4,6 3,3 6,0 ZZW 6,0 1016,9 91 - -
00:44 4,6 3,3 8,0 ZZW 8,0 1016,9 91 - -
00:54 4,6 3,3 6,0 ZZW 6,0 1016,9 91 - -
00:59 4,5 3,2 8,0 ZZW 8,0 1016,9 91 - -
01:04 4,4 3,1 10,0 ZZW 10,0 1016,9 91 - -
01:09 4,4 3,1 8,0 ZZW 10,0 1016,9 91 - -
01:14 4,3 3,0 8,0 ZW 11,0 1016,6 91 - -
01:19 4,3 3,0 10,0 ZZW 10,0 1016,9 91 - -
01:24 4,3 3,0 10,0 ZW 11,0 1016,6 91 - -
01:29 4,3 2,9 5,0 ZW 6,0 1016,6 91 - -
01:34 4,1 2,8 5,0 ZZW 6,0 1016,6 91 - -
01:39 4,2 2,9 6,0 ZW 8,0 1016,6 91 - -
01:44 4,2 2,9 8,0 ZW 8,0 1016,6 91 - -
01:49 4,2 2,9 6,0 ZZW 6,0 1016,6 91 - -
01:54 4,1 2,9 5,0 ZZW 8,0 1016,6 92 - -
02:09 4,0 2,8 5,0 ZW 5,0 1016,6 92 - -
02:14 3,9 2,7 5,0 ZW 5,0 1016,6 92 - -
02:19 3,9 2,7 3,0 ZW 5,0 1016,6 92 - -
02:24 3,8 2,6 5,0 ZW 5,0 1016,6 92 - -
02:29 3,7 2,7 3,0 ZW 5,0 1016,3 93 - -
02:34 3,6 2,5 3,0 ZW 5,0 1016,3 93 - -
02:39 3,4 2,4 5,0 ZW 5,0 1016,3 93 - -
02:44 3,5 2,5 5,0 ZZW 5,0 1016,3 93 - -
02:49 3,7 2,7 5,0 ZZW 5,0 1016,3 93 - -
02:54 3,6 2,6 3,0 ZZW 3,0 1016,3 93 - -
02:59 3,4 2,4   Windstil 2,0 1016,3 93 - -
03:04 3,3 2,3   Windstil 3,0 1016,3 93 - -
03:09 3,2 2,2   Windstil   1015,9 93 - -
03:14 3,2 2,2   Windstil   1015,9 93 - -
03:19 3,2 2,2   Windstil   1015,9 93 - -
03:24 3,3 2,3   Windstil   1015,9 93 - -
03:29 3,3 2,3 3,0 ZZW 3,0 1015,9 93 - -
03:39 3,2 2,2 3,0 ZZW 3,0 1015,9 93 - -
03:44 3,1 2,1 3,0 ZZW 3,0 1015,9 93 - -
03:49 3,1 2,1 1,0 ZZW 3,0 1015,9 93 - -
03:54 3,1 2,2   Windstil   1015,9 94 - -
03:59 3,1 2,2   Windstil   1015,6 94 - -
04:04 3,2 2,3   Windstil   1015,6 94 - -
04:09 3,1 2,2 3,0 ZZO 3,0 1015,6 94 - -
04:14 3,0 2,1 3,0 ZZO 6,0 1015,6 94 - -
04:19 3,0 2,1 5,0 ZO 6,0 1015,6 94 - -
04:24 3,2 2,3 5,0 ZO 6,0 1015,6 94 - -
04:29 3,3 2,4 5,0 ZO 6,0 1015,6 94 - -
04:34 3,6 2,7 5,0 ZO 6,0 1015,6 94 - -
04:49 3,6 2,7 5,0 ZO 6,0 1015,6 94 - -
04:54 3,5 2,6 5,0 ZO 6,0 1015,6 94 - -
05:04 3,6 2,7 6,0 ZO 6,0 1015,2 94 - -
05:09 3,5 2,6 5,0 ZO 6,0 1015,2 94 - -
05:14 3,6 2,7 8,0 ZO 8,0 1015,2 94 - -
05:19 3,5 2,6 5,0 ZO 6,0 1015,2 94 - -
05:24 3,4 2,5 5,0 Oosten 10,0 1015,2 94 - -
05:29 3,4 2,5 8,0 ZO 8,0 1015,2 94 - -
05:34 3,3 2,4 6,0 ZO 10,0 1015,2 94 - -
05:39 3,4 2,5 6,0 ZO 10,0 1015,2 94 - -
05:44 3,4 2,5 6,0 ZO 8,0 1014,9 94 - 5
05:49 3,6 2,7 5,0 ZO 10,0 1014,9 94 - 9
05:54 3,6 2,7 5,0 ZO 8,0 1015,2 94 - 11
05:59 3,6 2,7 6,0 ZO 10,0 1014,9 94 - 12
06:04 3,8 2,9 8,0 ZO 10,0 1014,9 94 - 14
06:09 3,9 3,0 6,0 ZO 6,0 1015,2 94 - 16
06:14 4,1 3,2 6,0 ZO 10,0 1014,9 94 0,25 18
06:19 4,2 3,2 5,0 ZO 6,0 1015,2 94 0,25 18
06:24 4,2 3,2 6,0 ZZO 8,0 1014,9 93 0,25 21
06:29 4,2 3,2 8,0 ZZO 13,0 1015,2 93 0,25 26
06:34 4,2 3,2 11,0 ZO 13,0 1014,9 93 0,25 28
06:39 4,3 3,3 6,0 ZO 11,0 1014,9 93 0,25 40
06:44 4,3 3,3 6,0 ZO 11,0 1014,9 93 0,25 42
06:49 4,4 3,4 8,0 ZZO 8,0 1014,9 93 0,25 37
06:54 4,4 3,4 8,0 ZO 10,0 1014,9 93 0,25 44
06:59 4,4 3,4 10,0 ZO 11,0 1014,9 93 0,25 60
07:04 4,5 3,5 10,0 ZO 15,0 1015,2 93 0,25 46
07:09 4,5 3,3 10,0 ZZO 16,0 1015,2 92 0,25 42
07:14 4,5 3,3 16,0 ZO 16,0 1015,2 92 - 44
07:19 4,5 3,3 14,0 ZO 16,0 1015,2 92 - 46
07:24 4,5 3,3 11,0 ZZO 16,0 1015,2 92 - 125
07:29 4,6 3,4 13,0 ZO 16,0 1015,2 92 - 176
07:34 4,8 3,5 10,0 ZO 13,0 1014,9 91 - 190
07:39 5,0 3,7 16,0 ZO 19,0 1014,9 91 - 197
07:44 5,2 3,7 11,0 ZO 19,0 1014,9 90 - 200
07:49 5,4 3,9 14,0 ZO 19,0 1014,9 90 - 171
07:54 5,6 3,9 16,0 ZO 19,0 1014,9 89 - 207
07:59 5,8 4,1 14,0 ZO 16,0 1014,9 89 - 209
08:04 5,9 4,1 14,0 ZO 18,0 1014,9 89 - 200
08:09 6,2 4,4 13,0 ZO 19,0 1014,9 88 - 163
08:14 6,4 4,4 14,0 ZO 16,0 1014,9 88 - 144
08:19 6,6 4,5 16,0 ZO 19,0 1014,9 87 - 134
08:24 6,8 4,6 16,0 ZO 19,0 1014,9 86 - 156
08:29 6,8 4,6 16,0 ZO 24,0 1014,9 86 - 172
08:34 7,1 4,7 13,0 ZO 24,0 1014,9 85 - 176
08:39 7,2 4,8 11,0 ZZO 16,0 1014,9 85 - 179
08:44 7,3 4,8 14,0 ZO 18,0 1014,9 84 - 267
08:49 7,6 5,1 13,0 OZO 15,0 1014,9 85 - 290
08:54 7,8 5,3 14,0 OZO 18,0 1014,6 84 - 318
08:59 8,1 5,2 14,0 ZO 18,0 1014,6 83 - 315
09:04 8,2 5,5 13,0 ZZO 18,0 1014,6 83 - 295
09:09 8,3 5,4 11,0 ZZO 16,0 1014,6 82 - 279
09:14 8,4 5,5 16,0 ZO 19,0 1014,6 82 - 264
09:19 8,6 5,5 14,0 ZZO 19,0 1014,6 81 - 309
09:24 8,9 5,6 16,0 ZO 16,0 1014,6 81 - 334
09:29 9,1 5,7 20,0 ZO 19,0 1014,2 80 - 323
09:34 9,3 5,8 18,0 ZZO 21,0 1014,2 79 - 323
09:39 9,4 5,8 16,0 ZO 19,0 1014,2 78 - 323
09:44 9,5 5,5 21,0 ZO 26,0 1014,2 76 - 304
09:49 9,5 5,1 23,0 ZZO 23,0 1014,2 74 - 302
09:54 9,7 5,3 16,0 ZO 26,0 1014,2 74 - 316
09:59 9,9 5,7 14,0 ZZO 19,0 1014,2 75 - 332
10:04 10,0 5,8 14,0 ZO 19,0 1014,2 75 - 316
10:09 10,1 5,9 14,0 OZO 16,0 1013,9 75 - 278
10:14 10,2 5,8 13,0 ZO 16,0 1013,9 74 - 274
10:19 10,1 5,7 11,0 ZZO 16,0 1013,9 74 - 301
10:24 10,2 5,6 13,0 ZZO 19,0 1013,9 73 - 297
10:29 10,2 5,4 16,0 ZO 23,0 1013,6 72 - 285
10:34 10,3 5,5 16,0 ZO 21,0 1013,6 72 - 299
10:39 10,4 5,4 14,0 ZZO 21,0 1013,6 71 - 348
10:44 10,7 5,7 18,0 ZO 21,0 1013,6 71 - 364
10:49 10,7 5,7 18,0 ZO 21,0 1013,6 71 - 362
10:54 10,9 5,5 13,0 ZO 18,0 1013,6 70 - 387
10:59 11,1 5,8 20,0 ZO 21,0 1013,2 70 - 394
11:04 11,1 5,8 21,0 ZO 24,0 1013,2 70 - 390
11:09 11,2 5,3 18,0 ZO 24,0 1013,2 67 - 380
11:14 11,3 5,5 21,0 OZO 27,0 1013,2 68 - 366
11:19 11,3 5,2 23,0 ZO 26,0 1012,9 66 - 359
11:24 11,4 5,1 26,0 ZO 26,0 1012,9 65 - 353
11:29 11,5 5,4 23,0 ZO 26,0 1012,9 66 - 322
11:34 11,6 5,5 24,0 ZO 24,0 1012,9 66 - 323
11:39 11,8 5,9 13,0 ZO 19,0 1012,9 67 - 292
11:44 11,8 5,9 21,0 OZO 21,0 1012,5 67 - 308
11:49 11,7 5,3 24,0 ZO 26,0 1012,5 65 - 315
11:54 11,8 5,7 21,0 ZO 26,0 1012,2 66 - 295
11:59 11,8 5,7 23,0 ZO 23,0 1012,2 66 - 244
12:04 11,8 5,7 14,0 ZO 23,0 1012,2 66 - 348
12:09 12,2 6,3 21,0 ZZO 21,0 1012,2 67 - 367
12:14 12,4 6,1 14,0 ZO 24,0 1012,2 66 - 366
12:19 12,3 5,9 21,0 ZO 29,0 1012,2 65 - 357
12:24 12,4 6,0 24,0 ZO 24,0 1011,9 65 - 394
12:29 12,4 6,2 27,0 ZZO 32,0 1011,9 66 - 394
12:34 12,6 6,4 18,0 ZZO 26,0 1011,9 66 - 390
12:39 12,7 6,4 31,0 ZO 32,0 1011,9 66 - 396
12:44 12,7 6,5 18,0 ZZO 31,0 1011,9 66 - 364
12:49 12,7 6,5 27,0 ZZO 31,0 1011,9 66 - 338
12:54 12,7 6,7 18,0 ZZO 24,0 1011,9 67 - 323
12:59 12,8 6,8 18,0 ZZO 31,0 1011,5 67 - 366
13:04 12,8 6,8 20,0 ZZO 24,0 1011,5 67 - 411
13:09 13,1 6,9 32,0 ZZO 32,0 1011,5 67 - 473
13:14 13,1 6,9 21,0 ZZO 27,0 1011,5 66 - 401
13:19 13,0 6,8 23,0 ZZO 27,0 1011,5 66 - 320
13:24 12,9 7,1 23,0 Zuiden 27,0 1011,2 68 - 255
13:29 12,8 7,1 18,0 ZZO 31,0 1011,2 69 - 230
13:34 12,6 7,1 23,0 Zuiden 31,0 1011,2 69 - 251
13:39 12,6 7,1 20,0 ZZO 31,0 1011,2 69 - 264
13:44 12,6 6,6 18,0 ZZO 31,0 1010,8 67 - 288
13:49 12,7 6,7 20,0 ZZO 27,0 1010,8 67 - 288
13:54 12,7 6,7 27,0 ZZO 27,0 1010,8 67 - 253
13:59 12,6 6,6 27,0 Zuiden 39,0 1010,8 68 - 253
14:04 12,3 7,0 23,0 Zuiden 27,0 1010,8 71 - 234
14:09 12,0 7,5 18,0 Zuiden 29,0 1010,8 75 - 244
14:14 11,8 7,7 24,0 ZZO 34,0 1010,8 76 - 271
14:19 11,7 7,3 21,0 Zuiden 34,0 1010,8 76 - 209
14:24 11,4 7,6 26,0 ZO 27,0 1010,8 78 - 274
14:29 11,3 8,2 18,0 ZZO 27,0 1010,8 81 - 281
14:34 11,3 8,2 21,0 ZZO 31,0 1010,8 81 - 220
14:39 11,0 7,9 20,0 ZZO 31,0 1010,5 83 - 179
14:44 10,7 8,0 20,0 ZZO 24,0 1010,5 84 0,25 197
14:49 10,5 7,9 18,0 ZZO 24,0 1010,5 84 0,25 197
14:54 10,5 7,9 16,0 ZZO 21,0 1010,2 84 0,25 162
14:59 10,5 8,1 20,0 ZO 21,0 1010,2 85 0,25 111
15:04 10,4 7,9 21,0 ZO 23,0 1010,2 85 0,51 95
15:09 10,2 8,0 13,0 ZO 23,0 1010,2 86 0,51 90
15:14 10,1 7,9 14,0 ZO 19,0 1010,2 86 0,51 95
15:19 9,9 7,8 20,0 ZZO 21,0 1009,8 87 0,51 98
15:24 9,9 7,8 20,0 ZO 21,0 1009,8 87 0,51 98
15:29 9,8 7,9 14,0 ZO 21,0 1009,8 88 0,76 107
15:34 9,8 7,9 16,0 ZO 19,0 1009,5 88 1,02 104
15:39 9,7 7,8 21,0 OZO 26,0 1009,1 88 1,27 98
15:44 9,5 7,8 24,0 OZO 29,0 1009,1 89 1,27 88
15:49 9,4 7,8 20,0 OZO 29,0 1008,8 90 1,27 79
15:54 9,4 7,8 20,0 ZO 27,0 1008,8 90 1,52 77
15:59 9,3 7,7 14,0 ZO 27,0 1008,5 90 1,52 72
16:04 9,3 7,9 29,0 ZO 29,0 1008,5 91 1,78 63
16:09 9,3 7,9 16,0 ZO 18,0 1008,5 91 1,78 67
16:14 9,3 7,9 18,0 ZO 29,0 1008,5 91 2,03 67
16:19 9,2 7,8 16,0 ZO 19,0 1008,5 91 2,03 60
16:24 9,2 7,8 16,0 ZO 26,0 1008,5 91 2,03 65
16:29 9,2 7,8 39,0 ZO 39,0 1008,5 91 2,29 69
16:34 9,1 7,9 21,0 ZO 21,0 1008,1 92 2,29 81
16:39 9,2 8,0 21,0 ZO 24,0 1008,1 92 2,29 88
16:44 9,1 7,9 20,0 ZO 24,0 1007,8 92 2,29 63
16:49 9,2 8,0 29,0 ZO 35,0 1007,8 92 2,03 70
16:54 9,2 8,0 24,0 ZO 29,0 1007,8 92 2,03 72
16:59 9,1 8,0 24,0 ZO 24,0 1007,8 93 2,03 62
17:04 9,1 8,0 23,0 ZO 26,0 1007,5 93 2,03 53
17:09 9,1 8,0 23,0 ZO 26,0 1007,5 93 2,29 49
17:14 9,0 7,9 23,0 ZO 35,0 1007,5 93 2,29 42
17:19 9,0 7,9 14,0 ZO 35,0 1007,5 93 2,29 37
17:24 9,0 7,9 26,0 ZO 35,0 1007,1 93 2,29 44
17:29 9,0 7,9 21,0 ZO 35,0 1007,1 93 2,29 42
17:34 9,0 7,9 23,0 ZO 32,0 1007,1 93 2,29 47
17:39 9,0 7,9 23,0 ZO 31,0 1006,8 93 2,29 53
17:44 9,1 8,0 14,0 ZO 26,0 1006,8 93 2,29 53

Download your copy of this data-set  here

Our weather-data as stored at Weather Underground. Script ontwikkeld door Jim McMurry. Rewritten for template use Leuven-Template

Apparatuur in gebruik:

Weerstation
Davis Vantage pro 2

Weerprogramma
Meteobridge

Weercomputer
Meteobridge Nano SD

Webleverancier
Versio

Davis Vantage pro 2

Meteobridge

Meteobridge Nano SD

Versio